Location: Newark
(48.6676°N, 6.1917°E)
Time: 06:36:19
(UTC+00:00)

N. Korean satellite - Pass Details

Date: 07 December 2019
Orbit: 454 x 508 km, 97.2° (Epoch: 20 January)

Event Time Altitude Azimuth Distance (km) Brightness Sun altitude
Rises 04:42:27 0° 25° (NNE) 2,569 10.5 -23.9°
Reaches altitude 10° 04:44:55 10° 42° (NE) 1,671 9.7 -23.5°
Maximum altitude 04:47:43 21° 93° (E) 1,119 9.2 -23.0°
Drops below altitude 10° 04:50:28 10° 144° (SE) 1,635 9.8 -22.6°
Sets 04:52:51 0° 161° (SSE) 2,495 10.6 -22.2°
